• In Belgium
  • List of Countries
  • For 7 days
  • Water Temperature
  • Satellite Maps
  • Weather Map
  • Weather Widgets
  • user-avatar
    Login

    Hourly Weather Dinant

    Today, 21 October, Sunday

    Time Temperature Precipitation Wind Pressure Humidity
    00:00 +7°C° 0 mm 1 mps 757 mmHg 83%
    01:00 +7°C° 0 mm 1 mps 757 mmHg 83%
    02:00 +7°C° 0 mm 1 mps 757 mmHg 84%
    03:00 +7°C° 0 mm 1 mps 757 mmHg 84%
    04:00 +7°C° 0 mm 1 mps 757 mmHg 84%
    05:00 +7°C° 0 mm 1 mps 757 mmHg 85%
    06:00 +7°C° 0 mm 1 mps 757 mmHg 85%
    07:00 +9°C° 0 mm 1 mps 757 mmHg 78%
    08:00 +11°C° 0 mm 1 mps 757 mmHg 71%
    09:00 +13°C° 0 mm 1 mps 756 mmHg 64%
    10:00 +14°C° 0 mm 1 mps 756 mmHg 60%
    11:00 +16°C° 0 mm 1 mps 756 mmHg 56%
    12:00 +18°C° 0 mm 1 mps 756 mmHg 52%
    13:00 +18°C° 0 mm 1 mps 756 mmHg 55%
    14:00 +18°C° 0 mm 1 mps 755 mmHg 57%
    15:00 +18°C° 0 mm 1 mps 755 mmHg 60%
    16:00 +15°C° 0 mm 1 mps 755 mmHg 66%
    17:00 +13°C° 0 mm 1 mps 755 mmHg 73%
    18:00 +11°C° 0 mm 1 mps 755 mmHg 79%
    19:00 +11°C° 0 mm 1 mps 755 mmHg 81%
    20:00 +10°C° 0 mm 1 mps 755 mmHg 82%
    21:00 +10°C° 0 mm 1 mps 755 mmHg 84%
    22:00 +10°C° 0 mm 1 mps 755 mmHg 84%
    23:00 +10°C° 0 mm 1 mps 755 mmHg 85%

    Tomorrow, 22 October, Monday

    Time Temperature Precipitation Wind Pressure Humidity
    00:00 +9°C° 0 mm 1 mps 755 mmHg 85%
    01:00 +9°C° 0 mm 1 mps 755 mmHg 86%
    02:00 +9°C° 0 mm 1 mps 756 mmHg 86%
    03:00 +9°C° 0 mm 1 mps 756 mmHg 87%
    04:00 +9°C° 0 mm 1 mps 756 mmHg 87%
    05:00 +9°C° 0 mm 1 mps 756 mmHg 88%
    06:00 +9°C° 0 mm 1 mps 757 mmHg 89%
    07:00 +9°C° 0.1 mm 2 mps 757 mmHg 88%
    08:00 +10°C° 0.1 mm 3 mps 758 mmHg 88%
    09:00 +11°C° 0.1 mm 4 mps 758 mmHg 87%
    10:00 +10°C° 0.1 mm 5 mps 758 mmHg 86%
    11:00 +10°C° 0.1 mm 5 mps 759 mmHg 85%
    12:00 +12°C° 0.1 mm 5 mps 759 mmHg 84%
    13:00 +12°C° 0 mm 5 mps 759 mmHg 81%
    14:00 +12°C° 0 mm 5 mps 759 mmHg 78%
    15:00 +10°C° 0 mm 5 mps 759 mmHg 75%
    16:00 +9°C° 0 mm 5 mps 760 mmHg 77%
    17:00 +8°C° 0 mm 4 mps 760 mmHg 79%
    18:00 +7°C° 0 mm 4 mps 761 mmHg 81%
    19:00 +7°C° 0 mm 3 mps 761 mmHg 83%
    20:00 +5°C° 0 mm 3 mps 761 mmHg 84%
    21:00 +5°C° 0 mm 2 mps 762 mmHg 86%
    22:00 +5°C° 0 mm 2 mps 762 mmHg 87%
    23:00 +4°C° 0 mm 2 mps 762 mmHg 88%

    Day after tomorrow, 23 October, Tuesday

    Time Temperature Precipitation Wind Pressure Humidity
    00:00 +5°C° 0 mm 1 mps 761 mmHg 89%
    01:00 +5°C° 0 mm 1 mps 761 mmHg 89%
    02:00 +5°C° 0 mm 1 mps 761 mmHg 89%
    03:00 +5°C° 0 mm 1 mps 761 mmHg 88%
    04:00 +5°C° 0 mm 1 mps 760 mmHg 89%
    05:00 +5°C° 0 mm 1 mps 760 mmHg 89%
    06:00 +4°C° 0 mm 2 mps 760 mmHg 89%
    07:00 +6°C° 0 mm 2 mps 760 mmHg 84%
    08:00 +7°C° 0 mm 3 mps 760 mmHg 79%
    09:00 +8°C° 0 mm 4 mps 759 mmHg 74%
    10:00 +10°C° 0 mm 4 mps 759 mmHg 72%
    11:00 +10°C° 0 mm 5 mps 758 mmHg 69%
    12:00 +12°C° 0 mm 5 mps 758 mmHg 67%
    13:00 +12°C° 0 mm 5 mps 757 mmHg 68%
    14:00 +12°C° 0 mm 5 mps 757 mmHg 69%
    15:00 +13°C° 0 mm 5 mps 756 mmHg 70%
    16:00 +11°C° 0 mm 4 mps 756 mmHg 76%
    17:00 +10°C° 0 mm 4 mps 756 mmHg 82%
    18:00 +9°C° 0 mm 3 mps 756 mmHg 87%
    19:00 +9°C° 0 mm 3 mps 756 mmHg 87%
    20:00 +9°C° 0 mm 3 mps 756 mmHg 86%
    21:00 +10°C° 0 mm 3 mps 756 mmHg 85%
    22:00 +10°C° 0 mm 3 mps 756 mmHg 88%
    23:00 +10°C° 0 mm 3 mps 756 mmHg 91%

    24 October, Wednesday

    Time Temperature Precipitation Wind Pressure Humidity
    00:00 +10°C° 0 mm 3 mps 756 mmHg 94%
    01:00 +10°C° 0 mm 3 mps 756 mmHg 95%
    02:00 +10°C° 0 mm 3 mps 755 mmHg 95%
    03:00 +10°C° 0 mm 3 mps 755 mmHg 96%
    04:00 +11°C° 0.1 mm 3 mps 755 mmHg 96%
    05:00 +11°C° 0.1 mm 4 mps 755 mmHg 96%
    06:00 +11°C° 0.1 mm 4 mps 755 mmHg 96%
    07:00 +12°C° 0.1 mm 4 mps 756 mmHg 95%
    08:00 +13°C° 0.1 mm 4 mps 756 mmHg 94%
    09:00 +13°C° 0.1 mm 4 mps 756 mmHg 93%
    10:00 +14°C° 0.1 mm 4 mps 756 mmHg 92%
    11:00 +14°C° 0.1 mm 4 mps 756 mmHg 90%
    12:00 +15°C° 0.1 mm 4 mps 756 mmHg 89%
    13:00 +15°C° 0.1 mm 4 mps 756 mmHg 90%
    14:00 +15°C° 0.1 mm 4 mps 756 mmHg 90%
    15:00 +15°C° 0.1 mm 4 mps 755 mmHg 90%
    16:00 +14°C° 0 mm 3 mps 755 mmHg 92%
    17:00 +14°C° 0 mm 3 mps 755 mmHg 93%
    18:00 +13°C° 0 mm 3 mps 755 mmHg 95%
    19:00 +13°C° 0 mm 3 mps 755 mmHg 96%
    20:00 +14°C° 0 mm 2 mps 756 mmHg 96%
    21:00 +13°C° 0 mm 2 mps 756 mmHg 97%
    22:00 +13°C° 0 mm 2 mps 755 mmHg 97%
    23:00 +13°C° 0 mm 2 mps 755 mmHg 97%

    25 October, Thursday

    Time Temperature Precipitation Wind Pressure Humidity
    00:00 +13°C° 0 mm 2 mps 755 mmHg 97%
    01:00 +13°C° 0 mm 2 mps 755 mmHg 97%
    02:00 +13°C° 0 mm 2 mps 754 mmHg 97%
    03:00 +13°C° 0 mm 2 mps 754 mmHg 97%
    04:00 +12°C° 0 mm 2 mps 754 mmHg 97%
    05:00 +12°C° 0 mm 2 mps 753 mmHg 98%
    06:00 +10°C° 0 mm 2 mps 753 mmHg 98%
    07:00 +12°C° 0 mm 2 mps 753 mmHg 95%
    08:00 +12°C° 0 mm 3 mps 753 mmHg 93%
    09:00 +13°C° 0 mm 3 mps 753 mmHg 91%
    10:00 +13°C° 0 mm 3 mps 752 mmHg 87%
    11:00 +13°C° 0 mm 3 mps 752 mmHg 83%
    12:00 +13°C° 0 mm 3 mps 752 mmHg 78%
    13:00 +13°C° 0 mm 3 mps 751 mmHg 77%
    14:00 +14°C° 0 mm 2 mps 751 mmHg 75%
    15:00 +14°C° 0 mm 2 mps 750 mmHg 73%
    16:00 +13°C° 0 mm 2 mps 750 mmHg 78%
    17:00 +11°C° 0 mm 1 mps 750 mmHg 84%
    18:00 +10°C° 0 mm 1 mps 749 mmHg 89%
    19:00 +9°C° 0 mm 1 mps 749 mmHg 90%
    20:00 +9°C° 0 mm 1 mps 749 mmHg 91%
    21:00 +8°C° 0 mm 1 mps 749 mmHg 92%
    22:00 +8°C° 0 mm 1 mps 748 mmHg 93%
    23:00 +8°C° 0 mm 1 mps 748 mmHg 93%

    26 October, Friday

    Time Temperature Precipitation Wind Pressure Humidity
    00:00 +7°C° 0 mm 1 mps 747 mmHg 94%
    01:00 +7°C° 0 mm 1 mps 746 mmHg 94%
    02:00 +6°C° 0 mm 2 mps 746 mmHg 94%
    03:00 +6°C° 0 mm 2 mps 745 mmHg 94%
    04:00 +5°C° 0 mm 2 mps 745 mmHg 94%
    05:00 +5°C° 0 mm 2 mps 744 mmHg 94%
    06:00 +5°C° 0 mm 2 mps 744 mmHg 93%
    07:00 +6°C° 0 mm 2 mps 743 mmHg 89%
    08:00 +8°C° 0 mm 2 mps 743 mmHg 84%
    09:00 +9°C° 0 mm 2 mps 743 mmHg 79%
    10:00 +10°C° 0 mm 2 mps 742 mmHg 75%
    11:00 +12°C° 0 mm 2 mps 742 mmHg 72%
    12:00 +14°C° 0 mm 2 mps 741 mmHg 68%
    13:00 +13°C° 0 mm 2 mps 741 mmHg 71%
    14:00 +13°C° 0 mm 2 mps 740 mmHg 74%
    15:00 +12°C° 0 mm 2 mps 740 mmHg 77%
    16:00 +10°C° 0.3 mm 2 mps 740 mmHg 83%
    17:00 +9°C° 0.3 mm 2 mps 740 mmHg 88%
    18:00 +8°C° 0.3 mm 2 mps 739 mmHg 94%
    19:00 +8°C° 0.3 mm 2 mps 739 mmHg 95%
    20:00 +8°C° 0.3 mm 2 mps 739 mmHg 96%
    21:00 +7°C° 0.3 mm 2 mps 739 mmHg 97%
    22:00 +7°C° 0.4 mm 2 mps 739 mmHg 97%
    23:00 +7°C° 0.4 mm 2 mps 739 mmHg 97%
    Show more